LAN12XL SAWH-SCTE

Flight info

Callsign LAN12XL
Flight time N/A
Altitude 36000
Route USU DCT ROMIV DCT ALMIR DCT NAS DCT EGOSA DCT BUVOK DCT ASOPA DCT ASADO DCT ROGEL DCT BAL DCT OPURA DCT TEN DCT OSARA OSARA2A
Aircraft A320/M-SDE3FGHIRWY/LB1

Departure

Time N/A
Airport Ushuaia - Malvinas Argentinas International Airport (SAWH)

Arrival

Time 2026-04-30 21:53
Airport El Tepual International Airport (SCTE)
Time Latitude Longitude Altitude Speed Heading
2026-04-30 19:46 -54.45650 -68.99648 18156 ft 373 kts 311°
2026-04-30 19:47 -54.43873 -69.02854 18607 ft 378 kts 311°
2026-04-30 19:47 -54.42052 -69.06139 19097 ft 381 kts 311°
2026-04-30 19:47 -54.40214 -69.09454 19597 ft 385 kts 311°
2026-04-30 19:47 -54.38359 -69.12797 20107 ft 388 kts 311°
2026-04-30 19:48 -54.36488 -69.16164 20586 ft 392 kts 311°
2026-04-30 19:48 -54.34600 -69.19555 21061 ft 395 kts 311°
2026-04-30 19:48 -54.32690 -69.22976 21541 ft 399 kts 311°
2026-04-30 19:48 -54.30760 -69.26425 22019 ft 402 kts 311°
2026-04-30 19:49 -54.28817 -69.29895 22476 ft 406 kts 311°
2026-04-30 19:49 -54.24880 -69.36928 23281 ft 412 kts 311°
2026-04-30 19:49 -54.22890 -69.40472 23662 ft 414 kts 311°
2026-04-30 19:50 -54.20910 -69.43992 23997 ft 417 kts 311°
2026-04-30 19:50 -54.18893 -69.47575 24364 ft 420 kts 311°
2026-04-30 19:50 -54.16861 -69.51180 24736 ft 422 kts 311°
2026-04-30 19:50 -54.14819 -69.54791 25097 ft 424 kts 311°
2026-04-30 19:51 -54.12766 -69.58413 25465 ft 426 kts 311°
2026-04-30 19:51 -54.10700 -69.62053 25829 ft 428 kts 311°
2026-04-30 19:51 -54.08628 -69.65699 26170 ft 430 kts 311°
2026-04-30 19:51 -54.06540 -69.69370 26523 ft 432 kts 312°
2026-04-30 19:52 -54.04447 -69.73044 26878 ft 433 kts 311°
2026-04-30 19:52 -54.02345 -69.76733 27234 ft 435 kts 311°
2026-04-30 19:52 -54.00159 -69.80319 27551 ft 439 kts 318°
2026-04-30 19:52 -53.97677 -69.83377 27887 ft 443 kts 326°
2026-04-30 19:53 -53.95102 -69.86143 28218 ft 445 kts 326°
2026-04-30 19:53 -53.92485 -69.88955 28558 ft 447 kts 326°
2026-04-30 19:53 -53.89855 -69.91783 28906 ft 448 kts 326°
2026-04-30 19:53 -53.87226 -69.94609 29385 ft 447 kts 326°
2026-04-30 19:54 -53.84599 -69.97424 29792 ft 446 kts 326°
2026-04-30 19:54 -53.81980 -70.00222 30163 ft 445 kts 325°
2026-04-30 19:54 -53.79359 -70.03017 30506 ft 445 kts 325°
2026-04-30 19:54 -53.76744 -70.05806 30869 ft 444 kts 326°
2026-04-30 19:55 -53.74125 -70.08598 31234 ft 444 kts 325°
2026-04-30 19:55 -53.71514 -70.11386 31604 ft 444 kts 325°
2026-04-30 19:55 -53.68903 -70.14162 31972 ft 443 kts 325°
2026-04-30 19:55 -53.66290 -70.16934 32344 ft 443 kts 326°
2026-04-30 19:56 -53.63687 -70.19694 32746 ft 442 kts 325°
2026-04-30 19:56 -53.61120 -70.22414 33109 ft 441 kts 324°
2026-04-30 19:56 -53.58532 -70.25149 33514 ft 439 kts 324°
2026-04-30 19:56 -53.55951 -70.27874 33826 ft 437 kts 325°
2026-04-30 19:57 -53.53376 -70.30585 34112 ft 436 kts 325°
2026-04-30 19:57 -53.50801 -70.33290 34387 ft 436 kts 325°
2026-04-30 19:57 -53.48234 -70.35983 34649 ft 435 kts 324°
2026-04-30 19:57 -53.45669 -70.38676 34916 ft 434 kts 324°
2026-04-30 19:58 -53.43113 -70.41356 35157 ft 434 kts 326°
2026-04-30 19:58 -53.40548 -70.44035 35370 ft 434 kts 324°
2026-04-30 19:58 -53.35401 -70.49416 35458 ft 438 kts 325°
2026-04-30 19:59 -53.30214 -70.54836 35463 ft 440 kts 325°
2026-04-30 20:00 -53.22437 -70.62895 35472 ft 440 kts 325°
2026-04-30 20:00 -53.17227 -70.68265 35466 ft 440 kts 325°
2026-04-30 20:01 -53.09404 -70.76313 35478 ft 440 kts 325°
2026-04-30 20:01 -53.04192 -70.81652 35478 ft 441 kts 326°
2026-04-30 20:02 -52.98501 -70.85524 35487 ft 447 kts 345°
2026-04-30 20:02 -52.95420 -70.86269 35487 ft 450 kts 352°
2026-04-30 20:03 -52.86037 -70.87562 35475 ft 451 kts 352°
2026-04-30 20:03 -52.79788 -70.88449 35478 ft 451 kts 352°
2026-04-30 20:04 -52.73568 -70.89332 35493 ft 451 kts 352°
2026-04-30 20:05 -52.64189 -70.90633 35492 ft 451 kts 352°
2026-04-30 20:05 -52.54813 -70.91952 35509 ft 450 kts 352°
2026-04-30 20:06 -52.48571 -70.92825 35510 ft 450 kts 352°
2026-04-30 20:06 -52.42331 -70.93689 35497 ft 450 kts 352°
2026-04-30 20:07 -52.36084 -70.94555 35508 ft 450 kts 352°
2026-04-30 20:08 -52.26736 -70.95849 35518 ft 449 kts 352°
2026-04-30 20:08 -52.20500 -70.96702 35519 ft 449 kts 352°
2026-04-30 20:09 -52.14310 -70.97543 35511 ft 449 kts 352°
2026-04-30 20:09 -52.04973 -70.98826 35521 ft 448 kts 352°
2026-04-30 20:10 -51.95648 -71.00086 35524 ft 448 kts 352°
2026-04-30 20:11 -51.86329 -71.01313 35529 ft 448 kts 352°
2026-04-30 20:11 -51.80155 -71.02125 35537 ft 448 kts 352°
2026-04-30 20:12 -51.70839 -71.03348 35532 ft 448 kts 352°
2026-04-30 20:13 -51.64630 -71.04150 35530 ft 447 kts 352°
2026-04-30 20:13 -51.58433 -71.04952 35539 ft 446 kts 352°
2026-04-30 20:14 -51.52243 -71.05761 35541 ft 446 kts 352°
2026-04-30 20:14 -51.46046 -71.06570 35527 ft 446 kts 351°
2026-04-30 20:15 -51.39860 -71.07376 35542 ft 446 kts 351°
2026-04-30 20:15 -51.33676 -71.08175 35546 ft 445 kts 351°
2026-04-30 20:16 -51.27501 -71.08964 35548 ft 445 kts 351°
2026-04-30 20:16 -51.21403 -71.09751 35538 ft 445 kts 351°
2026-04-30 20:17 -51.15234 -71.10543 35547 ft 445 kts 351°
2026-04-30 20:17 -51.09055 -71.11322 35556 ft 445 kts 351°
2026-04-30 20:18 -51.02888 -71.12093 35557 ft 444 kts 351°
2026-04-30 20:18 -50.96721 -71.12876 35536 ft 444 kts 351°
2026-04-30 20:19 -50.90596 -71.13654 35551 ft 444 kts 351°
2026-04-30 20:19 -50.84428 -71.14427 35557 ft 444 kts 351°
2026-04-30 20:20 -50.78264 -71.15205 35557 ft 444 kts 351°
2026-04-30 20:20 -50.72111 -71.15978 35538 ft 443 kts 351°
2026-04-30 20:21 -50.65959 -71.16743 35549 ft 443 kts 351°
2026-04-30 20:21 -50.59805 -71.17502 35557 ft 443 kts 351°
2026-04-30 20:22 -50.53658 -71.18267 35562 ft 443 kts 351°
2026-04-30 20:22 -50.47502 -71.19023 35550 ft 443 kts 351°
2026-04-30 20:23 -50.41389 -71.19770 35563 ft 443 kts 351°
2026-04-30 20:23 -50.35234 -71.20512 35564 ft 443 kts 351°
2026-04-30 20:24 -50.29094 -71.21261 35574 ft 442 kts 351°
2026-04-30 20:24 -50.23003 -71.22009 35564 ft 441 kts 351°
2026-04-30 20:25 -50.13839 -71.23110 35567 ft 440 kts 351°
2026-04-30 20:26 -50.04681 -71.24224 35570 ft 440 kts 351°
2026-04-30 20:26 -49.95527 -71.25331 35561 ft 439 kts 351°
2026-04-30 20:27 -49.83366 -71.26783 35566 ft 439 kts 351°
2026-04-30 20:28 -49.71166 -71.28236 35552 ft 440 kts 351°
2026-04-30 20:30 -49.55953 -71.30047 35560 ft 440 kts 351°
2026-04-30 20:31 -49.37652 -71.32263 35568 ft 439 kts 351°
2026-04-30 20:32 -49.22461 -71.34115 35565 ft 439 kts 351°
2026-04-30 20:33 -49.13317 -71.35198 35567 ft 439 kts 351°
2026-04-30 20:34 -49.04176 -71.36289 35563 ft 439 kts 350°
2026-04-30 20:35 -48.95038 -71.37394 35569 ft 439 kts 350°
2026-04-30 20:35 -48.85944 -71.38472 35563 ft 438 kts 350°
2026-04-30 20:36 -48.80850 -71.39069 35573 ft 437 kts 350°
2026-04-30 20:37 -48.71759 -71.40148 35561 ft 437 kts 350°
2026-04-30 20:37 -48.65734 -71.40846 35563 ft 436 kts 349°
2026-04-30 20:38 -48.59693 -71.41543 35577 ft 435 kts 349°
2026-04-30 20:38 -48.53668 -71.42254 35580 ft 434 kts 349°
2026-04-30 20:39 -48.44645 -71.43323 35568 ft 433 kts 349°
2026-04-30 20:40 -48.35641 -71.44364 35583 ft 432 kts 349°
2026-04-30 20:40 -48.29686 -71.45041 35583 ft 431 kts 349°
2026-04-30 20:41 -48.20708 -71.46077 35560 ft 431 kts 349°
2026-04-30 20:41 -48.14730 -71.46773 35570 ft 431 kts 349°
2026-04-30 20:42 -48.08753 -71.47468 35577 ft 431 kts 349°
2026-04-30 20:43 -47.99783 -71.48488 35561 ft 431 kts 349°
2026-04-30 20:43 -47.93800 -71.49167 35565 ft 431 kts 349°
2026-04-30 20:44 -47.84833 -71.50173 35561 ft 430 kts 349°
2026-04-30 20:45 -47.72938 -71.51516 35551 ft 429 kts 348°
2026-04-30 20:45 -47.66990 -71.52200 35549 ft 429 kts 348°
2026-04-30 20:46 -47.55092 -71.53526 35531 ft 428 kts 348°
2026-04-30 20:47 -47.46157 -71.54529 35534 ft 428 kts 348°
2026-04-30 20:48 -47.37293 -71.55492 35522 ft 428 kts 348°
2026-04-30 20:48 -47.31342 -71.56146 35526 ft 428 kts 348°
2026-04-30 20:49 -47.25390 -71.56818 35526 ft 428 kts 348°
2026-04-30 20:50 -47.16514 -71.57798 35530 ft 428 kts 348°
2026-04-30 20:50 -47.10571 -71.58451 35502 ft 427 kts 348°
2026-04-30 20:51 -47.04643 -71.59103 35528 ft 426 kts 348°
2026-04-30 20:51 -46.95772 -71.60066 35537 ft 426 kts 348°
2026-04-30 20:52 -46.89869 -71.60711 35528 ft 425 kts 348°
2026-04-30 20:53 -46.81016 -71.61666 35533 ft 425 kts 348°
2026-04-30 20:53 -46.75160 -71.62300 35538 ft 425 kts 348°
2026-04-30 20:54 -46.66314 -71.63169 35521 ft 426 kts 348°
2026-04-30 20:55 -46.57462 -71.63937 35536 ft 426 kts 348°
2026-04-30 20:55 -46.51551 -71.64472 35506 ft 426 kts 348°
2026-04-30 20:56 -46.42656 -71.65283 35523 ft 427 kts 348°
2026-04-30 20:57 -46.33792 -71.66095 35544 ft 424 kts 348°
2026-04-30 20:57 -46.27909 -71.66622 35558 ft 425 kts 348°
2026-04-30 20:58 -46.19009 -71.67420 35568 ft 427 kts 348°
2026-04-30 20:58 -46.13082 -71.67940 35582 ft 427 kts 348°
2026-04-30 20:59 -46.04171 -71.68742 35588 ft 428 kts 348°
2026-04-30 21:00 -45.92383 -71.69879 35601 ft 424 kts 343°
2026-04-30 21:01 -45.83978 -71.73029 35614 ft 416 kts 336°
2026-04-30 21:02 -45.75589 -71.76351 35631 ft 417 kts 336°
2026-04-30 21:02 -45.69985 -71.78560 35632 ft 417 kts 336°
2026-04-30 21:03 -45.64439 -71.80749 35650 ft 416 kts 336°
2026-04-30 21:03 -45.58853 -71.82954 35660 ft 416 kts 336°
2026-04-30 21:04 -45.53281 -71.85158 35657 ft 415 kts 336°
2026-04-30 21:04 -45.44921 -71.88442 35657 ft 414 kts 336°
2026-04-30 21:05 -45.39397 -71.90599 35661 ft 414 kts 336°
2026-04-30 21:05 -45.33845 -71.92771 35663 ft 413 kts 336°
2026-04-30 21:06 -45.28284 -71.94945 35647 ft 416 kts 336°
2026-04-30 21:06 -45.22691 -71.97093 35643 ft 416 kts 336°
2026-04-30 21:07 -45.17106 -71.99148 35650 ft 417 kts 337°
2026-04-30 21:07 -45.11492 -72.01198 35653 ft 416 kts 336°
2026-04-30 21:08 -45.05896 -72.03260 35663 ft 415 kts 336°
2026-04-30 21:08 -45.00314 -72.05325 35663 ft 414 kts 336°
2026-04-30 21:09 -44.94775 -72.07369 35665 ft 414 kts 336°
2026-04-30 21:09 -44.89195 -72.09416 35680 ft 414 kts 336°
2026-04-30 21:10 -44.83625 -72.11463 35688 ft 414 kts 336°
2026-04-30 21:10 -44.78047 -72.13495 35687 ft 413 kts 336°
2026-04-30 21:11 -44.72488 -72.15514 35683 ft 412 kts 335°
2026-04-30 21:11 -44.66983 -72.17522 35697 ft 410 kts 335°
2026-04-30 21:12 -44.61452 -72.19538 35702 ft 410 kts 335°
2026-04-30 21:12 -44.55929 -72.21542 35688 ft 409 kts 335°
2026-04-30 21:13 -44.50424 -72.23533 35700 ft 407 kts 335°
2026-04-30 21:13 -44.44930 -72.25521 35708 ft 407 kts 335°
2026-04-30 21:14 -44.39492 -72.27479 35708 ft 406 kts 335°
2026-04-30 21:14 -44.34020 -72.29445 35701 ft 405 kts 335°
2026-04-30 21:15 -44.28563 -72.31407 35715 ft 404 kts 335°
2026-04-30 21:15 -44.23124 -72.33367 35721 ft 403 kts 335°
2026-04-30 21:16 -44.17680 -72.35312 35696 ft 402 kts 335°
2026-04-30 21:16 -44.12310 -72.37221 35707 ft 401 kts 335°
2026-04-30 21:17 -44.09600 -72.38185 35525 ft 401 kts 335°
2026-04-30 21:17 -44.06913 -72.39139 35284 ft 397 kts 334°
2026-04-30 21:17 -44.04253 -72.40079 35046 ft 393 kts 334°
2026-04-30 21:17 -44.01612 -72.41010 34810 ft 390 kts 334°
2026-04-30 21:18 -43.99001 -72.41931 34542 ft 384 kts 334°
2026-04-30 21:18 -43.96423 -72.42844 34308 ft 380 kts 333°
2026-04-30 21:18 -43.93881 -72.43748 34083 ft 375 kts 333°
2026-04-30 21:18 -43.91364 -72.44649 33851 ft 372 kts 333°
2026-04-30 21:19 -43.88871 -72.45538 33599 ft 369 kts 333°
2026-04-30 21:19 -43.86399 -72.46412 33328 ft 366 kts 333°
2026-04-30 21:19 -43.83934 -72.47281 33054 ft 364 kts 333°
2026-04-30 21:19 -43.81492 -72.48143 32759 ft 361 kts 332°
2026-04-30 21:20 -43.79069 -72.49002 32501 ft 358 kts 332°
2026-04-30 21:20 -43.76693 -72.49841 32240 ft 355 kts 332°
2026-04-30 21:20 -43.74302 -72.50683 31981 ft 353 kts 332°
2026-04-30 21:20 -43.71927 -72.51519 31729 ft 351 kts 332°
2026-04-30 21:21 -43.69563 -72.52349 31472 ft 349 kts 332°
2026-04-30 21:21 -43.67217 -72.53170 31218 ft 347 kts 332°
2026-04-30 21:21 -43.62572 -72.54804 30718 ft 342 kts 332°
2026-04-30 21:22 -43.60271 -72.55614 30472 ft 341 kts 332°
2026-04-30 21:22 -43.53466 -72.58001 29751 ft 335 kts 332°
2026-04-30 21:23 -43.51211 -72.58790 29463 ft 333 kts 332°
2026-04-30 21:23 -43.48964 -72.59575 29181 ft 332 kts 332°
2026-04-30 21:23 -43.44538 -72.61112 28537 ft 328 kts 332°
2026-04-30 21:24 -43.42344 -72.61874 28269 ft 327 kts 332°
2026-04-30 21:24 -43.40146 -72.62642 27993 ft 325 kts 332°
2026-04-30 21:24 -43.37949 -72.63412 27719 ft 324 kts 332°
2026-04-30 21:24 -43.35769 -72.64174 27451 ft 324 kts 332°
2026-04-30 21:25 -43.31427 -72.65686 26920 ft 321 kts 332°
2026-04-30 21:25 -43.29266 -72.66440 26653 ft 319 kts 332°
2026-04-30 21:25 -43.27114 -72.67188 26352 ft 318 kts 332°
2026-04-30 21:26 -43.22846 -72.68663 25833 ft 313 kts 332°
2026-04-30 21:26 -43.20735 -72.69390 25592 ft 312 kts 333°
2026-04-30 21:27 -43.16568 -72.70830 25105 ft 311 kts 332°
2026-04-30 21:27 -43.14460 -72.71560 24858 ft 311 kts 332°
2026-04-30 21:27 -43.12359 -72.72285 24621 ft 311 kts 332°
2026-04-30 21:28 -43.08168 -72.73727 24108 ft 310 kts 332°
2026-04-30 21:28 -43.06074 -72.74448 23877 ft 309 kts 332°
2026-04-30 21:28 -43.01915 -72.75884 23409 ft 308 kts 332°
2026-04-30 21:29 -42.99842 -72.76596 23138 ft 307 kts 333°
2026-04-30 21:29 -42.93666 -72.78726 21946 ft 309 kts 333°
2026-04-30 21:30 -42.90124 -72.79960 20631 ft 323 kts 334°
2026-04-30 21:31 -42.83517 -72.82201 18460 ft 320 kts 336°
2026-04-30 21:31 -42.79250 -72.83627 16921 ft 313 kts 339°
2026-04-30 21:32 -42.74938 -72.84484 15406 ft 310 kts 343°
2026-04-30 21:32 -42.72811 -72.84890 14671 ft 309 kts 344°
2026-04-30 21:32 -42.70660 -72.85309 13928 ft 311 kts 345°
2026-04-30 21:32 -42.68527 -72.85720 13177 ft 308 kts 345°
2026-04-30 21:33 -42.66421 -72.86122 12401 ft 304 kts 345°
2026-04-30 21:33 -42.62338 -72.86889 11473 ft 282 kts 345°
2026-04-30 21:33 -42.60413 -72.87252 11220 ft 278 kts 345°
2026-04-30 21:34 -42.58534 -72.87611 10961 ft 274 kts 345°
2026-04-30 21:34 -42.54779 -72.88323 10471 ft 271 kts 346°
2026-04-30 21:34 -42.52914 -72.88677 10198 ft 269 kts 345°
2026-04-30 21:35 -42.51068 -72.89028 9970 ft 268 kts 345°
2026-04-30 21:35 -42.49231 -72.89376 9791 ft 264 kts 345°
2026-04-30 21:35 -42.47413 -72.89718 9667 ft 263 kts 345°
2026-04-30 21:35 -42.45599 -72.90061 9526 ft 263 kts 345°
2026-04-30 21:36 -42.43790 -72.90408 9392 ft 262 kts 344°
2026-04-30 21:36 -42.42024 -72.90807 9259 ft 260 kts 343°
2026-04-30 21:37 -42.36703 -72.92133 8862 ft 259 kts 343°
2026-04-30 21:37 -42.34932 -72.92571 8729 ft 258 kts 343°
2026-04-30 21:37 -42.33168 -72.93003 8583 ft 260 kts 344°
2026-04-30 21:37 -42.31378 -72.93438 8451 ft 261 kts 344°
2026-04-30 21:38 -42.29590 -72.93870 8328 ft 261 kts 344°
2026-04-30 21:38 -42.27807 -72.94299 8198 ft 260 kts 344°
2026-04-30 21:38 -42.26047 -72.94723 8069 ft 260 kts 344°
2026-04-30 21:38 -42.24269 -72.95149 7937 ft 259 kts 344°
2026-04-30 21:39 -42.22490 -72.95573 7816 ft 259 kts 344°
2026-04-30 21:39 -42.20715 -72.95999 7684 ft 259 kts 344°
2026-04-30 21:39 -42.18944 -72.96424 7563 ft 258 kts 344°
2026-04-30 21:39 -42.17173 -72.96845 7433 ft 258 kts 344°
2026-04-30 21:40 -42.15408 -72.97266 7306 ft 257 kts 344°
2026-04-30 21:40 -42.13649 -72.97687 7165 ft 256 kts 344°
2026-04-30 21:40 -42.11895 -72.98108 7047 ft 256 kts 344°
2026-04-30 21:40 -42.10143 -72.98528 6919 ft 255 kts 344°
2026-04-30 21:41 -42.08396 -72.98945 6794 ft 255 kts 344°
2026-04-30 21:41 -42.06651 -72.99362 6678 ft 254 kts 344°
2026-04-30 21:41 -42.04913 -72.99780 6551 ft 254 kts 344°
2026-04-30 21:41 -42.03187 -73.00194 6432 ft 253 kts 344°
2026-04-30 21:42 -42.01455 -73.00607 6309 ft 252 kts 344°
2026-04-30 21:42 -41.99727 -73.01018 6180 ft 252 kts 344°
2026-04-30 21:42 -41.98023 -73.01423 6062 ft 251 kts 344°
2026-04-30 21:42 -41.96305 -73.01831 5921 ft 251 kts 344°
2026-04-30 21:43 -41.94585 -73.02243 5794 ft 250 kts 344°
2026-04-30 21:43 -41.92873 -73.02655 5664 ft 250 kts 344°
2026-04-30 21:43 -41.91159 -73.03066 5538 ft 250 kts 344°
2026-04-30 21:43 -41.89448 -73.03472 5411 ft 249 kts 345°
2026-04-30 21:44 -41.87744 -73.03872 5284 ft 248 kts 344°
2026-04-30 21:44 -41.86045 -73.04274 5154 ft 248 kts 344°
2026-04-30 21:44 -41.84350 -73.04676 5026 ft 247 kts 344°
2026-04-30 21:44 -41.82661 -73.05077 4926 ft 246 kts 344°
2026-04-30 21:45 -41.80974 -73.05472 4938 ft 246 kts 345°
2026-04-30 21:45 -41.79281 -73.05872 4942 ft 247 kts 344°
2026-04-30 21:45 -41.77591 -73.06274 4932 ft 248 kts 344°
2026-04-30 21:45 -41.75895 -73.06675 4744 ft 246 kts 345°
2026-04-30 21:46 -41.74220 -73.07067 4468 ft 244 kts 344°
2026-04-30 21:46 -41.72554 -73.07461 4171 ft 242 kts 344°
2026-04-30 21:46 -41.70937 -73.07841 4109 ft 230 kts 344°
2026-04-30 21:46 -41.69411 -73.08197 4025 ft 220 kts 344°
2026-04-30 21:47 -41.67942 -73.08541 3936 ft 209 kts 343°
2026-04-30 21:47 -41.66550 -73.08867 3848 ft 198 kts 343°
2026-04-30 21:47 -41.65234 -73.09174 3794 ft 187 kts 343°
2026-04-30 21:47 -41.63973 -73.09470 3682 ft 181 kts 343°
2026-04-30 21:48 -41.62773 -73.09748 3604 ft 169 kts 343°
2026-04-30 21:48 -41.61649 -73.09899 3526 ft 159 kts 348°
2026-04-30 21:48 -41.60551 -73.09935 3363 ft 153 kts 351°
2026-04-30 21:48 -41.59535 -73.09925 3194 ft 144 kts 351°
2026-04-30 21:49 -41.58549 -73.09905 3020 ft 141 kts 350°
2026-04-30 21:49 -41.57562 -73.09834 2845 ft 139 kts 354°
2026-04-30 21:49 -41.56613 -73.09744 2748 ft 138 kts 354°
2026-04-30 21:49 -41.55651 -73.09639 2572 ft 139 kts 357°
2026-04-30 21:50 -41.54689 -73.09495 2481 ft 139 kts 355°
2026-04-30 21:50 -41.53736 -73.09480 2362 ft 137 kts 349°
2026-04-30 21:50 -41.52794 -73.09558 2184 ft 136 kts 351°
2026-04-30 21:50 -41.51844 -73.09525 1923 ft 136 kts 354°
2026-04-30 21:51 -41.50902 -73.09510 1688 ft 133 kts 352°
2026-04-30 21:51 -41.49973 -73.09544 1564 ft 133 kts 351°
2026-04-30 21:51 -41.49045 -73.09558 1368 ft 134 kts 353°
2026-04-30 21:51 -41.48099 -73.09487 1148 ft 137 kts 355°
2026-04-30 21:52 -41.47082 -73.09499 922 ft 163 kts 356°
2026-04-30 21:52 -41.45935 -73.09451 634 ft 156 kts
2026-04-30 21:52 -41.44930 -73.09426 399 ft 137 kts 359°
2026-04-30 21:52 -41.44059 -73.09402 293 ft 113 kts 359°
2026-04-30 21:53 -41.43536 -73.09384 302 ft 30 kts
2026-04-30 21:53 -41.43479 -73.09443 304 ft 8 kts 295°
2026-04-30 21:53 -41.43473 -73.09491 303 ft 1 kts 273°
2026-04-30 21:53 -41.43472 -73.09517 303 ft 4 kts 272°
2026-04-30 21:54 -41.43467 -73.09570 303 ft 7 kts 290°
2026-04-30 21:54 -41.43435 -73.09598 303 ft 2 kts 348°
2026-04-30 21:54 -41.43410 -73.09599 304 ft 5 kts
2026-04-30 21:54 -41.43367 -73.09598 304 ft 7 kts
2026-04-30 21:55 -41.43331 -73.09642 301 ft 9 kts 282°
2026-04-30 21:55 -41.43330 -73.09707 302 ft 3 kts 269°
2026-04-30 21:55 -41.43330 -73.09742 303 ft 3 kts 272°
2026-04-30 21:55 -41.43330 -73.09746 303 ft 0 kts 272°